Previsão horária em Ábrego

Hoje, 16 Maio, Domingo

Tempo Temperatura Precipitação Vento Pressão Humidade
00:00 +18°C° 0 mm 2 m/s 645 mmHg 89%
01:00 +18°C° 0 mm 2 m/s 645 mmHg 89%
02:00 +19°C° 0.1 mm 1 m/s 645 mmHg 89%
03:00 +19°C° 0.1 mm 1 m/s 645 mmHg 89%
04:00 +19°C° 0.1 mm 1 m/s 645 mmHg 90%
05:00 +19°C° 0 mm 1 m/s 645 mmHg 88%
06:00 +20°C° 0 mm 1 m/s 646 mmHg 86%
07:00 +21°C° 0 mm 1 m/s 646 mmHg 85%
08:00 +22°C° 0 mm 1 m/s 647 mmHg 79%
09:00 +24°C° 0 mm 1 m/s 647 mmHg 73%
10:00 +25°C° 0 mm 2 m/s 647 mmHg 67%
11:00 +25°C° 0.7 mm 2 m/s 647 mmHg 69%
12:00 +25°C° 0.7 mm 2 m/s 646 mmHg 71%
13:00 +25°C° 0.7 mm 2 m/s 646 mmHg 72%
14:00 +25°C° 1.1 mm 1 m/s 646 mmHg 75%
15:00 +24°C° 1.1 mm 1 m/s 645 mmHg 78%
16:00 +24°C° 1.1 mm 1 m/s 645 mmHg 80%
17:00 +23°C° 0.7 mm 1 m/s 645 mmHg 85%
18:00 +21°C° 0.7 mm 1 m/s 645 mmHg 89%
19:00 +20°C° 0.7 mm 1 m/s 645 mmHg 93%
20:00 +20°C° 0.3 mm 1 m/s 646 mmHg 93%
21:00 +20°C° 0.3 mm 1 m/s 646 mmHg 93%
22:00 +19°C° 0.3 mm 1 m/s 646 mmHg 93%
23:00 +19°C° 0.6 mm 1 m/s 646 mmHg 93%

Amanhã, 17 Maio, Segunda-feira

Tempo Temperatura Precipitação Vento Pressão Humidade
00:00 +19°C° 0.6 mm 1 m/s 646 mmHg 93%
01:00 +19°C° 0.6 mm 1 m/s 645 mmHg 93%
02:00 +19°C° 0.3 mm 1 m/s 645 mmHg 93%
03:00 +19°C° 0.3 mm 1 m/s 645 mmHg 93%
04:00 +19°C° 0.3 mm 1 m/s 645 mmHg 93%
05:00 +17°C° 0.1 mm 0 m/s 645 mmHg 91%
06:00 +18°C° 0.1 mm 0 m/s 646 mmHg 90%
07:00 +18°C° 0.1 mm 0 m/s 646 mmHg 89%
08:00 +21°C° 0.3 mm 1 m/s 647 mmHg 86%
09:00 +22°C° 0.3 mm 1 m/s 647 mmHg 84%
10:00 +23°C° 0.3 mm 1 m/s 647 mmHg 82%
11:00 +23°C° 1.3 mm 1 m/s 647 mmHg 82%
12:00 +24°C° 1.3 mm 1 m/s 646 mmHg 83%
13:00 +24°C° 1.3 mm 1 m/s 646 mmHg 83%
14:00 +23°C° 1.8 mm 1 m/s 645 mmHg 86%
15:00 +22°C° 1.8 mm 1 m/s 645 mmHg 89%
16:00 +22°C° 1.8 mm 1 m/s 645 mmHg 92%
17:00 +21°C° 1.8 mm 1 m/s 645 mmHg 93%
18:00 +21°C° 1.8 mm 1 m/s 645 mmHg 94%
19:00 +20°C° 1.8 mm 1 m/s 646 mmHg 95%
20:00 +20°C° 0.8 mm 1 m/s 646 mmHg 95%
21:00 +20°C° 0.8 mm 1 m/s 646 mmHg 94%
22:00 +20°C° 0.8 mm 1 m/s 647 mmHg 93%
23:00 +20°C° 0.5 mm 1 m/s 646 mmHg 93%

Depois de amanhã, 18 Maio, Terça-feira

Tempo Temperatura Precipitação Vento Pressão Humidade
00:00 +19°C° 0.5 mm 1 m/s 646 mmHg 94%
01:00 +19°C° 0.5 mm 1 m/s 646 mmHg 94%
02:00 +19°C° 0.8 mm 1 m/s 646 mmHg 94%
03:00 +19°C° 0.8 mm 1 m/s 646 mmHg 94%
04:00 +17°C° 0.8 mm 0 m/s 646 mmHg 94%
05:00 +19°C° 0.4 mm 1 m/s 646 mmHg 94%
06:00 +19°C° 0.4 mm 1 m/s 646 mmHg 93%
07:00 +20°C° 0.4 mm 1 m/s 647 mmHg 93%
08:00 +20°C° 0.5 mm 1 m/s 647 mmHg 92%
09:00 +21°C° 0.5 mm 1 m/s 647 mmHg 90%
10:00 +21°C° 0.5 mm 1 m/s 648 mmHg 89%
11:00 +21°C° 0.6 mm 1 m/s 647 mmHg 90%
12:00 +21°C° 0.6 mm 1 m/s 647 mmHg 92%
13:00 +21°C° 0.6 mm 1 m/s 646 mmHg 94%
14:00 +21°C° 0.6 mm 1 m/s 646 mmHg 94%
15:00 +21°C° 0.6 mm 1 m/s 645 mmHg 94%
16:00 +20°C° 0.6 mm 1 m/s 645 mmHg 94%
17:00 +20°C° 1.2 mm 1 m/s 645 mmHg 94%
18:00 +20°C° 1.2 mm 1 m/s 646 mmHg 95%
19:00 +19°C° 1.2 mm 1 m/s 646 mmHg 95%
20:00 +19°C° 0.4 mm 1 m/s 646 mmHg 94%
21:00 +19°C° 0.4 mm 1 m/s 646 mmHg 92%
22:00 +19°C° 0.4 mm 1 m/s 646 mmHg 91%
23:00 +18°C° 0 mm 1 m/s 645 mmHg 91%

19 Maio, Quarta-feira

Tempo Temperatura Precipitação Vento Pressão Humidade
00:00 +18°C° 0 mm 1 m/s 645 mmHg 91%
01:00 +18°C° 0 mm 1 m/s 645 mmHg 91%
02:00 +19°C° 0.2 mm 1 m/s 646 mmHg 90%
03:00 +19°C° 0.2 mm 1 m/s 645 mmHg 90%
04:00 +19°C° 0.2 mm 1 m/s 645 mmHg 91%
05:00 +19°C° 0 mm 1 m/s 646 mmHg 88%
06:00 +18°C° 0 mm 0 m/s 646 mmHg 86%
07:00 +19°C° 0 mm 0 m/s 647 mmHg 84%
08:00 +21°C° 0 mm 1 m/s 646 mmHg 83%
09:00 +23°C° 0 mm 1 m/s 647 mmHg 75%
10:00 +25°C° 0 mm 2 m/s 648 mmHg 67%
11:00 +25°C° 0.6 mm 2 m/s 647 mmHg 71%
12:00 +24°C° 0.6 mm 1 m/s 647 mmHg 75%
13:00 +24°C° 0.6 mm 1 m/s 646 mmHg 79%
14:00 +24°C° 0.7 mm 1 m/s 646 mmHg 79%
15:00 +24°C° 0.7 mm 1 m/s 645 mmHg 80%
16:00 +24°C° 0.7 mm 1 m/s 645 mmHg 81%
17:00 +23°C° 0.9 mm 1 m/s 645 mmHg 84%
18:00 +21°C° 0.9 mm 1 m/s 645 mmHg 88%
19:00 +19°C° 0.9 mm 2 m/s 645 mmHg 92%
20:00 +19°C° 0.3 mm 2 m/s 645 mmHg 92%
21:00 +18°C° 0.3 mm 2 m/s 645 mmHg 92%
22:00 +18°C° 0.3 mm 2 m/s 646 mmHg 93%
23:00 +18°C° 0.5 mm 2 m/s 645 mmHg 93%

20 Maio, Quinta-feira

Tempo Temperatura Precipitação Vento Pressão Humidade
00:00 +18°C° 0.5 mm 2 m/s 645 mmHg 93%
01:00 +19°C° 0.5 mm 1 m/s 645 mmHg 93%
02:00 +18°C° 0.4 mm 1 m/s 644 mmHg 93%
03:00 +18°C° 0.4 mm 1 m/s 644 mmHg 93%
04:00 +18°C° 0.4 mm 1 m/s 644 mmHg 93%
05:00 +19°C° 0.2 mm 1 m/s 645 mmHg 91%
06:00 +20°C° 0.2 mm 1 m/s 645 mmHg 89%
07:00 +20°C° 0.2 mm 1 m/s 646 mmHg 88%
08:00 +22°C° 0.2 mm 1 m/s 646 mmHg 84%
09:00 +23°C° 0.2 mm 1 m/s 647 mmHg 80%
10:00 +24°C° 0.2 mm 2 m/s 647 mmHg 76%
11:00 +25°C° 0.4 mm 2 m/s 647 mmHg 72%
12:00 +25°C° 0.4 mm 2 m/s 646 mmHg 68%
13:00 +26°C° 0.4 mm 1 m/s 646 mmHg 63%
14:00 +26°C° 0.2 mm 1 m/s 645 mmHg 65%
15:00 +26°C° 0.2 mm 1 m/s 645 mmHg 66%
16:00 +25°C° 0.2 mm 1 m/s 644 mmHg 68%
17:00 +24°C° 0.2 mm 1 m/s 644 mmHg 75%
18:00 +22°C° 0.2 mm 1 m/s 644 mmHg 83%
19:00 +21°C° 0.2 mm 1 m/s 645 mmHg 90%
20:00 +20°C° 0 mm 1 m/s 645 mmHg 89%
21:00 +20°C° 0 mm 1 m/s 645 mmHg 88%
22:00 +20°C° 0 mm 1 m/s 645 mmHg 87%
23:00 +20°C° 0.1 mm 1 m/s 645 mmHg 86%

21 Maio, Sexta-feira

Tempo Temperatura Precipitação Vento Pressão Humidade
00:00 +20°C° 0.1 mm 1 m/s 645 mmHg 85%
01:00 +20°C° 0.1 mm 1 m/s 645 mmHg 84%
02:00 +19°C° 0.1 mm 1 m/s 644 mmHg 83%
03:00 +19°C° 0.1 mm 1 m/s 644 mmHg 82%
04:00 +19°C° 0.1 mm 1 m/s 644 mmHg 81%
05:00 +20°C° 0 mm 1 m/s 645 mmHg 78%
06:00 +21°C° 0 mm 1 m/s 645 mmHg 75%
07:00 +20°C° 0 mm 0 m/s 646 mmHg 72%
08:00 +23°C° 0 mm 1 m/s 646 mmHg 69%
09:00 +24°C° 0 mm 1 m/s 647 mmHg 65%
10:00 +26°C° 0 mm 2 m/s 647 mmHg 61%
11:00 +26°C° 0.3 mm 2 m/s 647 mmHg 63%
12:00 +26°C° 0.3 mm 1 m/s 646 mmHg 64%
13:00 +27°C° 0.3 mm 1 m/s 646 mmHg 66%
14:00 +26°C° 1.3 mm 1 m/s 645 mmHg 70%
15:00 +25°C° 1.3 mm 1 m/s 645 mmHg 75%
16:00 +25°C° 1.3 mm 1 m/s 644 mmHg 80%
17:00 +23°C° 1.1 mm 1 m/s 644 mmHg 84%
18:00 +22°C° 1.1 mm 1 m/s 645 mmHg 88%
19:00 +20°C° 1.1 mm 2 m/s 645 mmHg 92%
20:00 +19°C° 0.2 mm 2 m/s 645 mmHg 92%
21:00 +19°C° 0.2 mm 2 m/s 645 mmHg 92%
22:00 +19°C° 0.2 mm 2 m/s 646 mmHg 92%
23:00 +18°C° 0.1 mm 2 m/s 645 mmHg 92%
Mostrar mais

Necessitamos do seu Consentimento

A Meteoprog e os seus Fornecedores de Serviços podem armazenar e aceder a dados pessoais como cookies, identificadores do dispositivo ou outras tecnologias semelhantes existentes no seu dispositivo e processar estes dados para personalizar conteúdos e anúncios, assim como funcionalidades nas redes sociais e análise de tráfego.

  • Armazenar e/ou aceder a informações no seu dispositivo

    Os cookies, identificadores do dispositivo ou outras informações podem ser armazenados ou acedidos no seu dispositivo, para os fins acima indicados.

  • Anúncios e conteúdos personalizados, medição de anúncios e conteúdos, dados sobre o público-alvo e desenvolvimento de produtos

    Os anúncios e os conteúdos podem ser personalizados com base num perfil. Podem ser adicionados dados adicionais para uma maior personalização dos anúncios e dos conteúdos. A eficácia dos anúncios e dos conteúdos pode ser medida. Podem ser obtidas informações sobre o público que visualizou os anúncios e os conteúdos. Estes dados podem ser usados para desenvolver ou melhorar sistemas, softwares ou a experiência do utilizador.

Ao clicar em "Eu concordo”, permitirá o uso de cookies, identificadores do dispositivo e web beacons mencionados ou outras tecnologias semelhantes. As configurações do navegador do seu dispositivo podem ser alteradas.

Para certos fins, podem ser invocados interesses legítimos ao invés de consentimento. Pode ler mais informação sobre este assunto na nossa Política de Privacidade e Cookies.